Location: Bermeries
(50.2863°N, 3.7551°E)
Time: 11:19:51
(UTC+00:00)

Cosmos 1862 Rocket - Pass Details

Date: 23 May 2024
Orbit: 601 x 629 km, 82.5° (Epoch: 14 June)

Event Time Altitude Azimuth Distance (km) Brightness Sun altitude
Exits shadow 01:04:17 31° 222° (SW) 1,070 4.3 -16.8°
Maximum altitude 01:06:05 53° 284° (WNW) 744 3.9 -16.7°
Drops below altitude 10° 01:10:21 10° 2° (N) 1,968 7.3 -16.4°
Sets 01:12:38 0° 7° (N) 2,880 8.5 -16.3°
